Time,TemperatureF,DewpointF,PressureIn,WindDirection,WindDirectionDegrees,WindSpeedMPH,WindSpeedGustMPH,Humidity,HourlyPrecipIn,Conditions,Clouds,dailyrainin,SoftwareType,DateUTC
2013-02-18 00:13:00,10.2,-3.0,29.73,NW,322,7.0,18.0,56,0.00,,,0.00,weatherlink.com 1.10,2013-02-18 05:13:00,
2013-02-18 00:28:00,10.1,-3.0,29.75,NW,307,6.0,17.0,56,0.00,,,0.00,weatherlink.com 1.10,2013-02-18 05:28:00,
2013-02-18 00:43:00,10.1,-3.0,29.75,NW,311,7.0,15.0,56,0.00,,,0.00,weatherlink.com 1.10,2013-02-18 05:43:00,
2013-02-18 00:58:00,10.0,-3.0,29.75,WSW,253,2.0,15.0,56,0.00,,,0.00,weatherlink.com 1.10,2013-02-18 05:58:00,
2013-02-18 01:13:00,10.0,-3.0,29.76,SW,235,5.0,13.0,56,0.00,,,0.00,weatherlink.com 1.10,2013-02-18 06:13:00,
2013-02-18 01:28:00,9.8,-3.0,29.77,NW,306,10.0,18.0,56,0.00,,,0.00,weatherlink.com 1.10,2013-02-18 06:28:00,
2013-02-18 01:43:00,9.7,-3.0,29.77,WSW,248,10.0,18.0,56,0.00,,,0.00,weatherlink.com 1.10,2013-02-18 06:43:00,
2013-02-18 01:58:00,9.6,-3.0,29.77,WSW,253,6.0,18.0,56,0.00,,,0.00,weatherlink.com 1.10,2013-02-18 06:58:00,
2013-02-18 02:13:00,9.5,-3.0,29.77,SW,226,5.0,17.0,56,0.00,,,0.00,weatherlink.com 1.10,2013-02-18 07:13:00,
2013-02-18 02:28:00,9.5,-3.0,29.78,WNW,283,6.0,19.0,56,0.00,,,0.00,weatherlink.com 1.10,2013-02-18 07:28:00,
2013-02-18 02:43:00,9.3,-4.0,29.78,NW,315,6.0,18.0,56,0.00,,,0.00,weatherlink.com 1.10,2013-02-18 07:43:00,
2013-02-18 02:58:00,9.2,-4.0,29.80,WSW,252,8.0,14.0,56,0.00,,,0.00,weatherlink.com 1.10,2013-02-18 07:58:00,
2013-02-18 03:14:00,9.2,-4.0,29.80,NNW,340,3.0,13.0,56,0.00,,,0.00,weatherlink.com 1.10,2013-02-18 08:14:00,
2013-02-18 03:29:00,9.2,-4.0,29.81,NW,320,3.0,13.0,56,0.00,,,0.00,weatherlink.com 1.10,2013-02-18 08:29:00,
2013-02-18 03:44:00,9.2,-3.0,29.81,West,267,9.0,16.0,57,0.00,,,0.00,weatherlink.com 1.10,2013-02-18 08:44:00,
2013-02-18 03:59:00,9.2,-4.0,29.82,West,266,5.0,15.0,56,0.00,,,0.00,weatherlink.com 1.10,2013-02-18 08:59:00,
2013-02-18 04:14:00,9.2,-3.0,29.83,NW,304,8.0,17.0,57,0.00,,,0.00,weatherlink.com 1.10,2013-02-18 09:14:00,
2013-02-18 04:29:00,9.2,-4.0,29.84,NNW,329,3.0,20.0,56,0.00,,,0.00,weatherlink.com 1.10,2013-02-18 09:29:00,
2013-02-18 04:44:00,9.1,-3.0,29.85,WNW,297,5.0,17.0,57,0.00,,,0.00,weatherlink.com 1.10,2013-02-18 09:44:00,
2013-02-18 04:59:00,9.0,-4.0,29.86,WNW,298,8.0,18.0,57,0.00,,,0.00,weatherlink.com 1.10,2013-02-18 09:59:00,
2013-02-18 05:14:00,8.9,-3.0,29.88,NW,304,5.0,17.0,58,0.00,,,0.00,weatherlink.com 1.10,2013-02-18 10:14:00,
2013-02-18 05:29:00,8.9,-4.0,29.89,WNW,293,2.0,16.0,57,0.00,,,0.00,weatherlink.com 1.10,2013-02-18 10:29:00,
2013-02-18 05:44:00,8.7,-3.0,29.90,WNW,297,6.0,16.0,58,0.00,,,0.00,weatherlink.com 1.10,2013-02-18 10:44:00,
2013-02-18 05:59:00,8.5,-4.0,29.91,NW,309,3.0,13.0,58,0.00,,,0.00,weatherlink.com 1.10,2013-02-18 10:59:00,
2013-02-18 06:14:00,8.4,-4.0,29.92,SW,219,2.0,16.0,58,0.00,,,0.00,weatherlink.com 1.10,2013-02-18 11:14:00,
2013-02-18 06:29:00,8.2,-4.0,29.92,South,183,9.0,12.0,59,0.00,,,0.00,weatherlink.com 1.10,2013-02-18 11:29:00,
2013-02-18 06:45:00,8.4,-3.0,29.93,West,269,5.0,19.0,59,0.00,,,0.00,weatherlink.com 1.10,2013-02-18 11:45:00,
2013-02-18 07:00:00,8.4,-4.0,29.95,West,277,10.0,15.0,58,0.00,,,0.00,weatherlink.com 1.10,2013-02-18 12:00:00,
2013-02-18 07:15:00,8.8,-3.0,29.96,SW,235,3.0,17.0,58,0.00,,,0.00,weatherlink.com 1.10,2013-02-18 12:15:00,
2013-02-18 07:30:00,9.0,-4.0,29.97,SW,222,8.0,16.0,57,0.00,,,0.00,weatherlink.com 1.10,2013-02-18 12:30:00,
2013-02-18 07:45:00,9.4,-3.0,29.96,NW,311,11.0,17.0,57,0.00,,,0.00,weatherlink.com 1.10,2013-02-18 12:45:00,
2013-02-18 08:00:00,9.8,-3.0,29.98,WNW,290,6.0,19.0,56,0.00,,,0.00,weatherlink.com 1.10,2013-02-18 13:00:00,
2013-02-18 08:15:00,10.3,-3.0,29.99,NNW,338,8.0,22.0,55,0.00,,,0.00,weatherlink.com 1.10,2013-02-18 13:15:00,
2013-02-18 08:30:00,10.9,-3.0,30.00,WSW,240,2.0,19.0,53,0.00,,,0.00,weatherlink.com 1.10,2013-02-18 13:30:00,
2013-02-18 08:45:00,11.7,-3.0,30.01,WNW,288,4.0,15.0,53,0.00,,,0.00,weatherlink.com 1.10,2013-02-18 13:45:00,
2013-02-18 09:00:00,12.3,-3.0,30.02,SE,132,3.0,17.0,51,0.00,,,0.00,weatherlink.com 1.10,2013-02-18 14:00:00,
2013-02-18 09:15:00,13.4,-2.0,30.01,SW,214,8.0,19.0,50,0.00,,,0.00,weatherlink.com 1.10,2013-02-18 14:15:00,
2013-02-18 09:30:00,14.1,-3.0,30.01,NNW,328,6.0,23.0,47,0.00,,,0.00,weatherlink.com 1.10,2013-02-18 14:30:00,
2013-02-18 09:45:00,14.8,-3.0,30.02,SE,128,3.0,16.0,45,0.00,,,0.00,weatherlink.com 1.10,2013-02-18 14:45:00,
2013-02-18 10:01:00,15.4,-3.0,30.03,WNW,294,8.0,17.0,44,0.00,,,0.00,weatherlink.com 1.10,2013-02-18 15:01:00,
2013-02-18 10:16:00,16.4,-3.0,30.04,SW,235,6.0,17.0,42,0.00,,,0.00,weatherlink.com 1.10,2013-02-18 15:16:00,
2013-02-18 10:31:00,16.6,-3.0,30.05,WSW,238,5.0,15.0,41,0.00,,,0.00,weatherlink.com 1.10,2013-02-18 15:31:00,
2013-02-18 10:40:00,17.0,-2.7,30.05,NW,308,6.0,6.0,41,0.00,,,0.00,Wunderground v.1.15,2013-02-18 15:40:00,
2013-02-18 10:46:00,17.6,-3.0,30.05,NW,314,5.0,14.0,40,0.00,,,0.00,weatherlink.com 1.10,2013-02-18 15:46:00,
2013-02-18 11:01:00,18.9,-3.0,30.05,WSW,239,8.0,17.0,38,0.00,,,0.00,weatherlink.com 1.10,2013-02-18 16:01:00,
2013-02-18 11:16:00,19.9,-4.0,30.05,NW,314,10.0,14.0,35,0.00,,,0.00,weatherlink.com 1.10,2013-02-18 16:16:00,
2013-02-18 11:31:00,20.7,-5.0,30.06,NW,310,3.0,14.0,32,0.00,,,0.00,weatherlink.com 1.10,2013-02-18 16:31:00,
2013-02-18 11:47:00,21.4,-4.0,30.06,NNE,33,2.0,16.0,32,0.00,,,0.00,weatherlink.com 1.10,2013-02-18 16:47:00,
2013-02-18 12:02:00,21.9,-5.0,30.05,WSW,242,9.0,20.0,30,0.00,,,0.00,weatherlink.com 1.10,2013-02-18 17:02:00,
2013-02-18 12:17:00,22.7,-5.0,30.05,NNW,333,1.0,9.0,29,0.00,,,0.00,weatherlink.com 1.10,2013-02-18 17:17:00,
2013-02-18 12:32:00,22.8,-6.0,30.06,West,262,8.0,19.0,28,0.00,,,0.00,weatherlink.com 1.10,2013-02-18 17:32:00,
2013-02-18 12:47:00,23.1,-5.0,30.06,NNW,335,4.0,17.0,29,0.00,,,0.00,weatherlink.com 1.10,2013-02-18 17:47:00,
2013-02-18 13:02:00,23.2,-7.0,30.06,WSW,242,11.0,19.0,26,0.00,,,0.00,weatherlink.com 1.10,2013-02-18 18:02:00,
2013-02-18 13:17:00,23.5,-6.0,30.05,WNW,297,6.0,17.0,27,0.00,,,0.00,weatherlink.com 1.10,2013-02-18 18:17:00,
2013-02-18 13:32:00,24.2,-5.0,30.05,West,280,3.0,17.0,27,0.00,,,0.00,weatherlink.com 1.10,2013-02-18 18:32:00,
2013-02-18 13:47:00,24.2,-6.0,30.06,WSW,243,4.0,14.0,26,0.00,,,0.00,weatherlink.com 1.10,2013-02-18 18:47:00,
2013-02-18 14:02:00,24.4,-5.0,30.06,NW,307,12.0,16.0,27,0.00,,,0.00,weatherlink.com 1.10,2013-02-18 19:02:00,
2013-02-18 14:17:00,24.3,-5.0,30.07,NW,317,4.0,24.0,27,0.00,,,0.00,weatherlink.com 1.10,2013-02-18 19:17:00,
2013-02-18 14:32:00,24.6,-5.0,30.07,WSW,239,10.0,18.0,27,0.00,,,0.00,weatherlink.com 1.10,2013-02-18 19:32:00,
2013-02-18 14:47:00,25.2,-7.0,30.07,WNW,293,10.0,16.0,24,0.00,,,0.00,weatherlink.com 1.10,2013-02-18 19:47:00,
2013-02-18 15:03:00,25.5,-7.0,30.07,SW,224,2.0,12.0,24,0.00,,,0.00,weatherlink.com 1.10,2013-02-18 20:03:00,
2013-02-18 15:18:00,25.5,-8.0,30.07,North,8,2.0,13.0,23,0.00,,,0.00,weatherlink.com 1.10,2013-02-18 20:18:00,
2013-02-18 15:33:00,26.1,-8.0,30.08,WSW,243,8.0,11.0,22,0.00,,,0.00,weatherlink.com 1.10,2013-02-18 20:33:00,
2013-02-18 15:48:00,26.2,-10.0,30.08,WNW,285,7.0,16.0,20,0.00,,,0.00,weatherlink.com 1.10,2013-02-18 20:48:00,
2013-02-18 16:03:00,26.0,-9.0,30.09,West,269,5.0,12.0,21,0.00,,,0.00,weatherlink.com 1.10,2013-02-18 21:03:00,
2013-02-18 16:18:00,25.6,-9.0,30.10,WNW,300,3.0,16.0,21,0.00,,,0.00,weatherlink.com 1.10,2013-02-18 21:18:00,
2013-02-18 16:33:00,25.3,-8.0,30.10,WSW,258,6.0,15.0,23,0.00,,,0.00,weatherlink.com 1.10,2013-02-18 21:33:00,
2013-02-18 16:48:00,24.7,-7.0,30.10,South,191,2.0,8.0,25,0.00,,,0.00,weatherlink.com 1.10,2013-02-18 21:48:00,
2013-02-18 17:03:00,23.9,-6.0,30.10,WSW,239,1.0,14.0,27,0.00,,,0.00,weatherlink.com 1.10,2013-02-18 22:03:00,
2013-02-18 17:18:00,23.3,-5.0,30.11,WSW,253,5.0,11.0,29,0.00,,,0.00,weatherlink.com 1.10,2013-02-18 22:18:00,
2013-02-18 17:33:00,22.9,-5.0,30.12,West,260,3.0,9.0,29,0.00,,,0.00,weatherlink.com 1.10,2013-02-18 22:33:00,
2013-02-18 17:48:00,22.3,-4.0,30.13,WSW,246,2.0,7.0,32,0.00,,,0.00,weatherlink.com 1.10,2013-02-18 22:48:00,
2013-02-18 18:03:00,22.0,-5.0,30.13,SW,231,5.0,9.0,31,0.00,,,0.00,weatherlink.com 1.10,2013-02-18 23:03:00,
2013-02-18 18:18:00,21.6,-4.0,30.13,West,267,3.0,8.0,32,0.00,,,0.00,weatherlink.com 1.10,2013-02-18 23:18:00,
2013-02-18 18:49:00,20.9,-4.0,30.14,West,271,1.0,9.0,33,0.00,,,0.00,weatherlink.com 1.10,2013-02-18 23:49:00,
2013-02-18 19:04:00,20.6,-4.0,30.14,WSW,240,6.0,10.0,34,0.00,,,0.00,weatherlink.com 1.10,2013-02-19 00:04:00,
2013-02-18 19:19:00,20.5,-3.0,30.15,West,265,3.0,9.0,35,0.00,,,0.00,weatherlink.com 1.10,2013-02-19 00:19:00,
2013-02-18 19:34:00,20.3,-3.0,30.16,WSW,246,1.0,7.0,35,0.00,,,0.00,weatherlink.com 1.10,2013-02-19 00:34:00,
2013-02-18 19:49:00,20.0,-3.0,30.16,West,267,2.0,8.0,36,0.00,,,0.00,weatherlink.com 1.10,2013-02-19 00:49:00,
2013-02-18 20:04:00,19.8,-3.0,30.16,WSW,252,1.0,7.0,37,0.00,,,0.00,weatherlink.com 1.10,2013-02-19 01:04:00,
2013-02-18 20:19:00,19.7,-2.0,30.16,WSW,255,4.0,8.0,38,0.00,,,0.00,weatherlink.com 1.10,2013-02-19 01:19:00,
2013-02-18 20:34:00,19.4,-3.0,30.17,WNW,291,2.0,5.0,38,0.00,,,0.00,weatherlink.com 1.10,2013-02-19 01:34:00,
2013-02-18 20:49:00,19.4,-2.0,30.18,WSW,246,3.0,10.0,39,0.00,,,0.00,weatherlink.com 1.10,2013-02-19 01:49:00,
2013-02-18 21:04:00,19.1,-1.0,30.17,WNW,284,0.0,6.0,41,0.00,,,0.00,weatherlink.com 1.10,2013-02-19 02:04:00,
2013-02-18 21:19:00,18.9,-2.0,30.18,SW,235,2.0,4.0,40,0.00,,,0.00,weatherlink.com 1.10,2013-02-19 02:19:00,
2013-02-18 21:34:00,18.5,-2.0,30.17,SW,235,1.0,2.0,40,0.00,,,0.00,weatherlink.com 1.10,2013-02-19 02:34:00,
2013-02-18 21:50:00,18.3,-2.0,30.18,West,267,3.0,5.0,41,0.00,,,0.00,weatherlink.com 1.10,2013-02-19 02:50:00,
2013-02-18 22:20:00,18.5,-2.0,30.20,SSW,200,3.0,6.0,41,0.00,,,0.00,weatherlink.com 1.10,2013-02-19 03:20:00,
2013-02-18 22:35:00,18.7,-2.0,30.19,West,263,4.0,5.0,40,0.00,,,0.00,weatherlink.com 1.10,2013-02-19 03:35:00,
2013-02-18 22:50:00,18.7,-3.0,30.20,WSW,252,3.0,7.0,39,0.00,,,0.00,weatherlink.com 1.10,2013-02-19 03:50:00,
2013-02-18 23:05:00,18.5,-2.0,30.19,West,278,1.0,3.0,40,0.00,,,0.00,weatherlink.com 1.10,2013-02-19 04:05:00,
2013-02-18 23:35:00,17.7,-2.0,30.19,West,259,0.0,4.0,42,0.00,,,0.00,weatherlink.com 1.10,2013-02-19 04:35:00,
2013-02-18 23:50:00,17.7,-2.0,30.20,WSW,243,1.0,4.0,42,0.00,,,0.00,weatherlink.com 1.10,2013-02-19 04:50:00,